Date,TemperatureHighF,TemperatureAvgF,TemperatureLowF,DewpointHighF,DewpointAvgF,DewpointLowF,HumidityHigh,HumidityAvg,HumidityLow,PressureMaxIn,PressureMinIn,WindSpeedMaxMPH,WindSpeedAvgMPH,GustSpeedMaxMPH,PrecipitationSumIn
2013-1-6,47,45,41,35,32,30,67,60,56,29.91,29.60,4,1,12,0.01
2013-1-7,43,41,35,34,26,-100,76,66,64,30.28,29.85,6,-36,13,0.00
2013-1-8,46,43,38,36,34,32,79,72,67,30.27,30.13,2,0,7,0.00
2013-1-9,48,44,35,41,39,34,96,82,75,30.19,29.76,2,0,6,0.00
2013-1-10,47,44,40,34,32,30,69,63,59,30.27,29.82,5,1,11,0.00
2013-1-18,32,30,27,20,16,14,69,57,49,30.40,30.23,3,1,11,0.01
2013-1-19,48,44,37,34,32,29,72,61,56,30.20,29.95,4,2,14,0.09
2013-1-20,54,47,36,37,28,19,65,48,38,29.85,29.53,10,3,21,0.01
2013-1-21,33,29,24,24,19,15,84,66,55,29.81,29.64,7,1,19,0.00
2013-1-22,24,17,12,18,4,-1,84,55,45,30.15,29.66,8,3,19,0.00
2013-1-23,19,14,9,6,3,0,74,61,50,30.22,30.09,6,1,15,0.00
2013-1-24,24,18,10,10,7,4,82,62,43,30.40,30.06,11,2,18,0.00
2013-1-25,22,16,11,14,8,3,88,69,51,30.42,30.01,3,0,10,0.00
2013-1-26,26,20,11,16,14,8,91,78,63,30.35,30.01,6,1,13,0.01
2013-1-27,34,24,14,20,16,9,85,72,56,30.49,28.60,3,0,10,0.01
2013-1-28,36,31,21,35,28,16,97,92,82,30.39,29.80,2,0,11,0.10
2013-1-29,58,46,36,53,44,35,98,94,80,30.01,29.79,2,0,6,0.16
2013-1-30,66,52,41,62,51,40,99,95,86,29.87,29.18,9,1,17,0.40
2013-1-31,55,37,27,54,25,14,98,62,48,29.71,29.10,11,3,25,0.48
2013-2-1,29,25,20,21,13,8,78,60,47,30.17,29.58,12,3,22,0.01
2013-2-2,27,22,15,22,13,7,91,70,54,30.22,29.91,3,0,12,0.00
2013-2-3,33,27,22,26,23,18,92,85,70,29.91,29.60,9,0,20,0.18
2013-2-4,32,25,19,22,16,12,82,68,56,29.96,29.80,9,1,20,0.01
2013-2-5,34,30,27,29,27,22,93,87,82,29.85,29.77,0,0,4,0.01
2013-2-6,38,32,28,33,27,19,96,81,65,30.26,29.83,6,1,14,0.05
2013-2-7,35,29,21,24,20,17,87,70,52,30.39,30.17,1,0,5,0.05
2013-2-8,36,33,31,35,31,24,96,91,74,30.17,28.44,6,0,13,0.13
2013-2-9,32,28,23,30,20,15,96,74,62,30.29,29.69,12,5,26,0.05
2013-2-10,42,30,16,29,17,10,87,61,38,30.41,30.22,2,0,7,0.06
2013-2-11,45,36,32,44,34,28,98,92,80,30.22,29.66,4,0,12,0.30
2013-2-12,46,39,29,32,29,24,83,66,57,29.87,29.70,9,2,18,0.00
2013-2-13,45,34,25,33,28,22,94,80,63,29.87,29.59,0,0,4,0.01
2013-2-14,41,34,32,36,32,31,96,93,79,29.86,29.62,3,0,7,0.19
2013-2-15,52,43,34,38,35,32,93,73,56,29.89,29.79,5,1,10,0.08
2013-2-16,34,32,29,33,27,19,95,83,67,29.89,29.58,2,0,10,0.09
2013-2-17,29,26,21,20,14,7,83,60,48,29.76,27.30,11,4,21,0.00
2013-2-18,37,27,18,19,14,7,70,58,42,30.19,28.03,8,2,18,0.00
2013-2-19,41,34,28,40,22,-100,96,76,60,30.07,28.53,6,-15,15,0.23
2013-2-20,34,28,23,28,18,13,78,65,55,29.96,29.26,9,3,20,0.01
2013-2-21,35,28,22,21,17,13,73,64,55,30.22,29.95,8,2,17,0.00
2013-2-22,36,30,24,30,23,17,89,75,67,30.30,30.14,1,0,5,0.00
2013-2-23,43,37,33,42,31,-100,97,92,89,30.15,27.22,0,-19,2,0.10
2013-2-24,46,37,31,39,27,-100,98,70,61,29.94,29.52,10,4,18,0.01
2013-2-25,47,36,29,32,26,23,82,70,54,30.12,29.93,4,1,10,0.00
2013-2-26,43,35,25,37,30,22,95,85,71,30.14,29.62,4,1,11,0.35
2013-2-27,50,43,37,44,37,-100,98,84,70,29.62,28.88,8,-7,17,0.46
2013-2-28,46,40,34,38,34,30,92,79,60,29.54,29.12,5,1,13,0.01
2013-3-1,43,38,33,33,31,26,89,76,65,29.69,29.37,6,2,15,0.01
2013-3-2,39,34,31,27,25,23,77,70,60,29.70,29.22,6,2,14,0.00
2013-3-3,36,31,28,25,22,19,77,69,57,29.70,29.23,10,3,18,0.00
2013-3-4,38,32,27,25,22,18,72,67,58,29.83,29.44,11,3,20,0.00
2013-3-5,48,36,29,32,27,22,79,69,53,29.88,29.26,5,1,13,0.00
2013-3-6,38,36,34,35,33,28,93,87,75,29.78,28.93,5,0,15,0.13
2013-3-7,45,39,34,32,26,-100,80,64,56,29.97,29.17,9,-12,19,0.01
2013-3-8,43,37,30,32,28,23,92,69,58,30.10,29.56,9,4,21,0.02
2013-3-9,61,44,31,32,27,23,72,52,29,30.16,29.98,4,1,12,0.01
2013-3-10,58,43,28,36,29,19,90,61,36,30.19,29.91,4,0,9,0.00
2013-3-11,55,47,38,49,44,35,96,88,75,30.14,29.28,4,1,11,0.00
2013-3-12,52,47,41,51,38,-100,97,84,74,29.81,28.08,6,2,15,0.03
2013-3-13,49,39,32,34,27,-100,85,69,52,29.68,29.17,6,1,15,0.01
2013-3-14,41,34,30,21,-18,-100,56,32,44,29.51,28.82,11,-57,17,0.00
2013-3-15,53,51,48,34,32,30,51,48,45,29.61,29.11,4,1,15,0.00
2013-3-17,37,34,29,24,23,22,75,66,58,30.14,30.01,1,0,6,0.01
2013-3-18,37,32,29,33,25,18,96,76,56,30.19,29.13,2,0,7,0.26
2013-3-19,52,40,34,42,33,23,98,79,42,29.70,28.79,8,2,21,0.53
2013-3-20,49,39,30,26,23,20,72,54,37,29.74,29.07,8,1,15,0.01
2013-3-21,38,34,31,29,21,14,89,58,45,29.66,28.68,6,2,15,0.00
2013-3-22,41,38,32,29,25,23,81,60,53,29.74,29.55,8,3,19,0.00
2013-3-23,47,43,36,29,22,-100,64,50,46,29.78,29.36,8,-32,16,0.00
2013-3-24,47,44,38,28,27,26,61,50,45,29.73,29.28,3,0,7,0.00
2013-3-26,52,46,37,38,35,31,95,67,48,29.47,28.81,7,2,12,0.03
2013-3-27,50,46,41,34,31,30,69,56,49,29.66,29.15,8,4,17,0.00
2013-3-28,46,45,42,34,32,31,73,61,57,29.76,29.34,7,4,15,0.00
2013-3-29,53,50,45,35,34,32,62,54,49,29.96,29.34,8,3,14,0.00
2013-3-30,58,55,49,35,33,30,56,43,37,29.93,29.21,4,1,10,0.00
2013-4-1,61,54,45,49,36,-100,82,57,48,29.30,27.92,11,5,21,0.00
2013-4-2,45,41,36,23,16,-100,52,42,38,29.26,28.85,8,-32,18,0.00
2013-4-3,48,43,37,24,21,16,54,41,36,29.46,28.28,9,5,18,0.00
2013-4-4,52,46,34,30,22,-100,56,44,36,30.05,29.06,4,-32,10,0.00
2013-4-5,62,57,43,35,32,27,69,40,30,29.48,28.83,7,3,16,0.00
2013-4-6,55,46,34,28,22,-100,57,40,31,29.97,29.05,4,1,12,0.00
2013-4-7,62,58,46,45,42,38,76,57,50,29.64,29.19,7,4,15,0.00
2013-4-8,77,73,51,56,52,24,63,49,34,29.82,29.05,4,1,11,0.00
2013-4-9,83,79,74,60,50,-100,59,45,41,29.24,26.95,8,-51,16,0.00
2013-4-10,88,85,80,66,63,61,54,49,44,27.12,26.20,7,2,15,0.00
2013-4-14,62,57,49,40,38,34,61,49,43,28.33,25.00,7,2,13,0.00
2013-4-15,62,55,47,49,45,38,78,70,62,28.13,27.27,3,0,7,0.00
2013-4-16,71,66,58,60,57,53,82,74,67,31.56,26.91,9,2,14,0.00
2013-4-17,72,68,60,55,51,47,69,57,42,27.65,26.12,2,0,6,0.00
2013-4-19,74,72,69,67,61,-100,93,79,78,25.47,25.47,6,-29,16,0.00
2013-4-20,58,53,45,40,36,30,73,53,45,28.28,26.67,7,2,16,0.00
2013-4-21,55,50,41,36,32,27,58,49,41,28.88,26.53,4,0,10,0.00
2013-4-22,56,53,46,41,36,-100,71,57,53,28.64,26.69,2,-16,6,0.00
2013-4-23,58,54,47,47,45,39,77,71,68,28.23,26.07,1,0,7,0.00
2013-4-24,72,68,59,60,54,-100,85,70,65,27.33,25.48,4,-25,10,0.00
2013-4-25,62,57,47,41,38,35,63,49,42,28.33,26.88,4,1,10,0.00
2013-4-26,63,60,52,42,38,35,65,45,36,27.28,24.80,4,1,10,0.00
2013-4-27,69,66,58,47,42,39,53,42,37,27.80,25.97,1,0,6,0.00
2013-4-28,69,65,59,49,45,38,59,47,41,27.67,25.03,2,1,7,0.00
2013-4-30,70,65,58,55,47,-100,88,61,52,29.72,22.85,2,-33,7,0.00
2013-5-1,70,67,59,47,44,39,54,43,38,27.42,25.72,0,0,6,0.00
2013-5-2,72,68,60,52,50,45,69,52,44,27.16,24.61,1,0,5,0.00
2013-5-3,67,64,59,51,46,41,60,52,45,27.11,24.07,1,0,6,0.00
2013-5-4,70,66,58,52,48,43,74,52,42,27.25,25.10,1,0,6,0.00
2013-5-5,66,62,53,51,46,43,72,57,51,25.36,22.61,1,0,7,0.00
2013-5-6,67,65,61,58,53,-100,80,72,71,23.72,23.72,0,-25,5,0.00
2013-5-7,71,64,55,63,58,-100,98,85,73,22.45,20.79,0,-16,5,0.00
2013-5-8,73,69,64,65,53,-100,98,68,60,31.34,30.28,0,-42,4,0.01
2013-5-9,69,68,65,61,60,59,84,77,73,30.28,30.28,2,0,7,0.01
2013-5-10,80,75,68,65,51,-100,91,59,52,30.28,30.28,1,0,5,0.00
2013-5-11,73,71,68,68,67,65,96,87,78,30.28,30.28,0,0,6,0.23
2013-5-12,61,59,56,49,40,34,70,49,42,32.48,32.48,0,0,0,0.01
2013-5-13,55,52,49,38,34,30,59,51,44,32.48,32.11,0,0,0,0.00
2013-5-14,60,56,50,40,32,-100,60,46,40,32.11,22.90,0,-36,0,0.00
2013-5-15,70,66,60,61,58,55,91,76,68,18.47,18.47,0,0,0,0.04
2013-5-16,80,62,65,69,13,-100,97,75,55,32.47,32.12,0,0,0,0.01
2013-5-17,75,69,65,56,31,-100,60,49,43,32.30,32.30,0,-35,0,0.00
2013-5-20,78,76,69,72,70,69,99,85,79,32.46,32.46,0,0,0,0.00
2013-5-21,81,79,76,74,73,71,89,81,77,32.46,32.46,0,0,0,0.00
2013-5-22,87,84,79,78,74,71,81,74,67,31.57,31.57,0,0,2,0.00
2013-5-23,79,76,75,72,60,-100,85,76,76,32.48,32.48,0,-59,4,0.00
2013-5-25,61,58,53,43,36,-100,62,50,46,32.49,32.47,9,-32,18,0.00
2013-5-26,69,66,58,46,38,-100,54,43,39,32.36,32.10,8,-32,15,0.00
2013-5-27,72,70,66,53,46,-100,61,47,42,32.47,32.47,2,-20,5,0.00
2013-5-29,90,86,82,74,70,68,75,59,52,32.50,32.49,1,0,5,0.00
2013-5-30,92,88,84,73,67,-100,64,55,50,32.49,32.13,1,-24,9,0.00
2013-6-1,88,86,83,76,74,71,71,67,61,32.49,32.49,0,0,4,0.00
2013-6-3,79,77,75,71,64,-100,81,72,65,32.49,31.57,2,-21,6,0.00
2013-6-4,73,70,62,55,52,48,63,53,48,32.49,31.97,3,0,7,0.00
2013-6-5,80,76,72,59,55,52,53,48,44,32.49,31.68,0,0,3,0.00
2013-6-6,71,69,67,62,60,58,83,71,64,32.49,32.41,0,0,2,0.01
2013-6-8,76,75,73,67,66,65,82,76,72,32.41,32.41,1,0,5,0.00
2013-6-9,80,78,77,68,67,63,73,67,63,31.44,26.69,0,0,1,0.00
2013-6-11,80,78,76,71,65,-100,78,72,72,32.45,31.40,1,0,7,0.03
2013-6-12,81,79,77,69,64,-100,75,66,63,27.76,20.05,3,-22,9,0.01
2013-6-13,83,80,73,75,72,70,99,78,68,32.28,31.54,1,0,6,0.01
2013-6-14,76,74,68,62,60,58,74,63,57,23.01,17.66,6,1,11,0.00
2013-6-15,81,78,75,64,54,-100,63,54,54,32.32,32.32,1,-25,7,0.00
2013-6-16,81,76,77,70,61,-100,74,65,63,22.13,22.13,1,0,7,0.00
2013-6-17,85,84,84,74,61,-100,70,64,65,29.07,29.07,0,0,4,0.00
2013-6-19,79,76,74,61,52,-100,59,52,49,32.42,32.40,0,-40,5,0.00
2013-6-20,81,80,79,64,64,62,61,57,54,32.45,29.52,0,0,2,0.00
2013-6-23,85,82,79,76,66,-100,91,76,73,32.18,32.18,0,-53,1,0.04
2013-6-24,84,81,79,73,72,72,83,76,67,32.35,31.26,0,0,1,0.04
2013-6-29,87,79,68,72,70,66,99,74,57,31.76,27.19,0,0,4,0.00
2013-6-30,81,75,69,77,72,67,99,90,74,31.76,29.35,0,0,3,0.01
2013-7-1,77,74,71,75,73,70,99,96,93,32.32,20.97,0,0,5,0.92
2013-7-2,83,75,73,77,74,71,99,94,80,27.93,27.93,0,0,5,0.40
2013-7-3,83,76,71,78,74,70,99,93,81,32.30,28.67,0,0,2,0.04
2013-7-4,87,79,73,79,75,72,99,87,76,32.31,20.99,0,0,5,0.01
2013-7-5,89,78,74,80,75,72,99,90,74,32.23,21.99,0,0,3,0.00
2013-7-7,91,81,70,81,75,68,96,82,68,31.57,21.99,0,0,3,0.45
2013-7-8,85,73,68,75,70,67,99,91,69,31.57,21.73,0,0,4,0.51
2013-7-9,85,76,71,77,72,68,96,89,76,31.57,18.97,0,0,1,0.01
2013-7-10,85,76,73,78,71,-100,99,89,79,31.57,31.57,0,0,3,0.12
2013-7-11,83,76,72,76,72,65,97,87,71,0.00,40.00,0,0,3,0.04
2013-7-12,73,70,68,70,66,63,98,86,77,30.67,30.67,1,0,10,0.97
2013-7-13,85,76,69,78,74,68,100,94,78,30.73,21.99,0,0,4,1.04
2013-7-14,91,80,73,80,75,72,99,87,66,30.66,18.97,0,0,4,0.03
2013-7-15,93,80,71,80,74,69,97,84,63,25.02,21.99,1,0,5,0.01
2013-7-16,89,80,75,77,74,70,94,83,64,25.02,21.72,1,0,5,0.00
2013-7-17,88,76,71,78,71,68,93,86,68,30.66,21.72,0,0,3,0.00
2013-7-18,93,80,74,81,75,71,94,87,67,30.70,18.96,0,0,2,0.00
2013-7-19,93,83,77,84,78,71,97,87,70,30.66,27.96,0,0,3,0.00
2013-7-20,90,82,74,80,75,69,92,80,70,31.87,28.08,0,0,5,0.00
2013-7-21,88,78,71,77,73,69,97,84,67,25.09,23.00,0,0,4,0.04
2013-7-22,88,76,71,79,73,70,98,91,71,28.60,28.60,0,0,1,0.05
2013-7-23,86,76,71,77,72,68,99,90,73,30.79,20.04,0,0,4,0.96
2013-7-24,78,73,69,70,67,63,94,83,68,30.67,23.19,3,0,7,0.00
2013-8-3,75,71,65,70,66,63,93,87,79,26.65,24.09,0,0,1,0.05
2013-8-4,77,68,61,64,61,56,96,79,56,31.75,21.21,3,0,10,0.01
2013-8-5,78,65,56,63,57,54,94,78,50,32.33,20.77,0,0,4,0.00
2013-8-6,71,63,55,66,60,53,97,90,79,30.51,28.64,0,0,2,0.00
2013-8-7,74,69,65,72,68,64,98,96,92,32.31,20.78,0,0,1,0.02
2013-8-8,86,75,68,78,72,67,100,93,74,32.15,21.97,0,0,5,0.07
2013-8-9,84,77,73,78,74,72,100,93,83,30.70,21.04,0,0,4,0.01
2013-8-10,84,75,68,72,69,65,96,82,63,32.37,21.07,0,0,3,0.00
2013-8-11,87,72,62,73,65,60,95,82,60,32.32,22.02,0,0,2,0.00
2013-8-21,88,73,63,76,69,62,99,87,65,30.47,27.82,0,0,2,0.10
2013-8-22,83,74,70,77,72,68,99,94,81,31.79,30.40,0,0,3,0.02
2013-8-23,73,69,63,70,66,60,97,89,79,30.79,28.61,0,0,3,0.01
2013-8-24,81,68,59,64,60,55,91,77,53,30.71,28.61,0,0,3,0.00
2013-8-25,83,65,54,67,56,-100,99,79,54,30.73,29.73,0,0,2,0.03
2013-8-26,86,71,60,72,64,56,91,80,62,29.73,21.95,0,0,3,0.01
2013-8-27,87,75,68,73,69,66,94,84,63,31.57,21.95,1,0,4,0.00
2013-8-28,76,73,70,76,72,69,99,97,96,30.48,30.48,0,0,0,0.65
2013-8-29,83,73,69,74,71,68,100,93,73,30.67,27.64,0,0,3,0.02
2013-8-30,83,73,66,77,71,65,100,93,79,31.57,21.99,0,0,3,0.27
2013-8-31,72,71,69,71,70,68,98,98,96,25.02,18.98,0,0,0,0.00
2013-9-26,66,62,59,60,58,57,92,89,81,25.04,25.03,0,0,0,0.00
2013-9-27,71,62,57,60,57,54,96,84,63,25.04,25.03,0,0,0,0.00
2013-11-30,39,38,37,29,9,-100,68,58,67,30.10,25.04,0,-143,3,0.00
2013-12-1,46,43,35,34,22,-100,96,63,62,25.13,22.90,1,-83,3,0.00
2013-12-3,51,50,47,39,38,37,71,63,59,32.18,30.06,1,0,5,0.00
2013-12-4,53,52,51,46,44,43,77,75,74,25.21,25.10,0,0,1,0.00
2013-12-7,38,37,36,32,18,-100,85,71,77,25.22,25.04,6,-97,13,0.00
2013-12-11,33,31,22,26,23,21,95,74,65,32.20,22.11,1,0,6,0.06
2013-12-12,25,25,24,14,13,12,64,60,58,27.71,18.02,5,1,11,0.01
2013-12-13,35,33,28,21,19,16,60,57,56,32.19,27.59,6,2,15,0.02
2013-12-15,37,36,32,35,34,31,97,94,88,32.34,19.05,1,0,9,0.29
2013-12-16,28,27,23,15,14,12,63,57,56,24.11,23.78,6,2,14,0.02
2013-12-18,35,34,27,26,24,22,88,69,61,26.01,26.01,3,1,12,0.04
2013-12-19,46,40,32,32,30,29,89,68,58,32.23,21.44,1,0,5,0.20
2013-12-20,50,49,46,37,36,35,65,61,58,28.77,18.03,0,0,3,0.02
2013-12-21,62,59,52,55,52,48,85,79,78,32.21,20.04,1,0,6,0.00
2013-12-24,36,35,33,26,25,24,72,67,64,32.37,24.85,4,2,11,0.00
2013-12-25,29,26,21,16,14,11,66,59,55,32.35,32.05,0,0,5,0.00
2013-12-26,37,34,31,31,29,28,89,82,76,32.28,23.08,2,0,11,0.03